Regional Weather Roundup
Issued by NWS

Home | Current Version | Previous Version | Graphics & Text | Print | Product List | Glossary On
Versions: 1 2 3 4 5 6 7 8 9 10 11 12 13 14 15 16 17 18 19 20 21 22 23 24 25 26 27 28 29 30 31 32 33 34 35 36 37 38 39 40 41 42 43 44 45 46 47 48 49 50
000
ASUS43 KMKX 061110
RWRWI

WISCONSIN REGIONAL WEATHER ROUNDUP
NATIONAL WEATHER SERVICE MILWAUKEE/SULLIVAN WI
500 AM CST SAT FEB 06 2016

NOTE: "FAIR" INDICATES FEW OR NO CLOUDS BELOW 12,000 FEET WITH NO
SIGNIFICANT WEATHER AND/OR OBSTRUCTIONS TO VISIBILITY.

WIZ001-002-006>008-014>016-023>028-061200-
NORTHWEST WISCONSIN

CITY           SKY/WX    TMP DP  RH WIND       PRES   REMARKS
SUPERIOR ARPT  CLEAR     22  17  81 SW8       30.08S WCI  12
ASHLAND        CLOUDY    23  18  81 SW10      30.08F WCI  12
HAYWARD        CLOUDY    23  19  85 SW7       30.08S WCI  15
SIREN          CLOUDY    24  20  84 W5        30.10F WCI  19
CUMBERLAND     CLOUDY    23  21  93 SW8       30.10S WCI  14
RICE LAKE      CLOUDY    24  22  91 SW3       30.12S FOG
CHETEK         CLOUDY    24  22  93 SW3       30.12S
LADYSMITH      CLOUDY    23  22  95 SW6       30.12S FOG     WCI  16
EAU CLAIRE     CLOUDY    25  21  85 SW7       30.13F WCI  17
MENOMONIE      CLOUDY    27  23  84 SW7       30.14F WCI  19
NEW RICHMOND   CLOUDY    25  21  85 W9        30.13R WCI  16
OSCEOLA        CLOUDY    25  22  88 SW7       30.16S WCI  17
$$

WIZ003>005-009-010-017-018-061200-
NORTH CENTRAL WISCONSIN

CITY           SKY/WX    TMP DP  RH WIND       PRES   REMARKS
MANITOWISH WTR CLOUDY    19  19 100 SW7       30.04F FOG     WCI  10
ARBOR VITAE    CLOUDY    22  20  93 W5        30.05S FOG     WCI  15
WOODRUFF       CLOUDY    22  20  93 W5        30.05S FOG     WCI  15
RHINELANDER    CLOUDY    20  18  92 W7        30.06F FOG     WCI  11
EAGLE RIVER    CLOUDY    20  19  96 W8        30.04S FOG     WCI  10
LAND O LAKES   CLOUDY    21  19  93 W5        30.03F WCI  15
PHILLIPS       CLOUDY    20  19  97 SW5       30.06F FOG     WCI  14
TOMAHAWK       CLOUDY    20  19  94 CALM      30.09R FOG
MEDFORD        CLOUDY    22  21  98 SW7       30.08S FOG     WCI  13
MERRILL        CLOUDY    22  21  97 SW6       30.11S FOG     WCI  14
$$

WIZ029-030-035-036-043>047-061200-
CENTRAL WISCONSIN

CITY           SKY/WX    TMP DP  RH WIND       PRES   REMARKS
WAUSAU         CLOUDY    23  20  88 SW9       30.10F FOG     WCI  13
MOSINEE        NOT AVBL
MARSHFIELD     CLOUDY    23  20  88 SW9       30.11F FOG     WCI  13
STEVENS POINT  CLOUDY    22  20  92 SW9       30.14F WCI  12
WAUPACA        CLOUDY    28  22  78 SW10      30.16F WCI  18
WAUTOMA        CLOUDY    26  21  81 SW7       30.18S WCI  18
WISC RAPIDS    CLOUDY    25  20  81 W9        30.17S WCI  15
CAMP DOUGLAS   CLOUDY    26  26 100 W12       30.17S WCI  16
$$

WIZ011>013-019>022-031-037>040-048>050-061200-
NORTHEAST WISCONSIN

CITY           SKY/WX    TMP DP  RH WIND       PRES   REMARKS
ANTIGO         CLOUDY    20  19  96 W12       30.08F FOG     WCI   8
SHAWANO        CLOUDY    27  21  79 W7        30.14S WCI  19
OCONTO         CLOUDY    25  20  83 W8        30.14S WCI  16
STURGEON BAY   CLOUDY    25  18  74 W16G23    30.15S WCI  12
GREEN BAY      LGT SNOW  25  20  81 SW10      30.15F WCI  15
MANITOWOC      FLURRIES  28  19  69 SW13      30.17F WCI  17
APPLETON       NOT AVBL
CLINTONVILLE   FLURRIES  27  21  80 W9        30.15S WCI  17
OSHKOSH        CLOUDY    26  18  71 SW9       30.17S WCI  17
$$

WIZ032>034-041-042-053>061-061200-
SOUTHWEST WISCONSIN

CITY           SKY/WX    TMP DP  RH WIND       PRES   REMARKS
LA CROSSE      CLOUDY    28  23  81 W7        30.20S WCI  21
SPARTA         CLOUDY    26  24  92 W5        30.19S FOG     WCI  21
VIROQUA        CLOUDY    26  24  93 SW10      30.17S WCI  16
BOSCOBEL       CLOUDY    29  23  78 SW5       30.22S WCI  24
PRAIRIE DU CHI CLOUDY    29  22  75 SW6       30.22S WCI  23
PLATTEVILLE    CLOUDY    27  24  88 SW9       30.20F WCI  17
$$

WIZ056-057-062-063-064-067-068-061200-
SOUTH CENTRAL WISCONSIN

CITY           SKY/WX    TMP DP  RH WIND       PRES   REMARKS
REEDSBURG      CLOUDY    27  20  77 SW9       30.19S WCI  17
BARABOO/DELLS  CLOUDY    27  19  74 SW9       30.18S WCI  17
LONE ROCK      CLOUDY    27  20  75 SW3       30.22S
MINERAL POINT  CLOUDY    28  23  80 SW8       30.19S WCI  20
MADISON        CLOUDY    27  20  75 SW6       30.20S WCI  20
MIDDLETON      CLOUDY    28  22  76 SW9       30.20S WCI  20
WATERTOWN      CLOUDY    27  23  86 S7        30.20F WCI  19
MONROE         PTCLDY    27  23  86 SW12      30.20F WCI  16
JANESVILLE     MOCLDY    28  23  80 SW7       30.23S WCI  21
$$

WIZ051-052-058>065-066-070>072-061200-
SOUTHEAST WISCONSIN

CITY           SKY/WX    TMP DP  RH WIND       PRES   REMARKS
MILWAUKEE      CLOUDY    28  21  75 SW9       30.23F WCI  19
WAUKESHA       CLOUDY    27  21  80 SW8       30.22F WCI  18
MILWAUKEE/TIMM MOCLDY    28  19  69 SW8       30.22F WCI  20
RACINE         CLOUDY    28  21  75 SW8       30.25F WCI  20
BURLINGTON     CLOUDY    26  22  83 SW8       30.24F WCI  18
KENOSHA        CLOUDY    27  22  81 SW7       30.24F WCI  19
FOND DU LAC    CLOUDY    27  19  72 SW8       30.18F WCI  19
SHEBOYGAN        N/A     28  17  63 SW13      30.18F WCI  17
WEST BEND      CLOUDY    28  21  74 SW8       30.19F WCI  20
JUNEAU         CLOUDY    26  21  82 S10       30.20F WCI  16
$$

LSZ147-162-061200-
LAKE SUPERIOR

STATION/POSITION TIME  TEMP    WIND        PRES    WAVE
                       AIR SEA DIR/SP/G            HT/PER
                 (UTC) (F)     (DEG/KT/KT) (MB)    (FT/S)
DEVILS ISLAND    1100   28     250/ 20/ 23 1018.5S
SAXON HARBOR     1000   25                 1018.6S
$$

LMZ867-665-643>646-061200-
LAKE MICHIGAN

STATION/POSITION TIME  TEMP    WIND        PRES    WAVE
                       AIR SEA DIR/SP/G            HT/PER
                 (UTC) (F)     (DEG/KT/KT) (MB)    (FT/S)
CHAMBERS ISLAND  1000   26     210/  8/ 14 1020.3F
ALGOMA LAKESHORE 1011          270/ 11/ 16   N/A
KEWAUNEE LAKESHO 1000   27     250/  6/ 12 1020.5F
SHEBOYGAN LAKESH 1100   29     220/ 11/ 12 1023.2F
PORT WASHINGTON  1040   29     240/  6/ 12 1023.7F
MILWAUKEE LAKESH 1010   30     240/ 12/ 16   N/A
KENOSHA   LAKESH 1100   28     240/  9/ 12 1024.0F
$$

TC  - TEMPERATURE IN CELSIUS
VSB - VISIBILITY IN STATUTE MILES
WCI - WIND CHILL INDEX
HX  - HEAT INDEX




USA.gov is the U.S. government's official web portal to all federal, state and local government web resources and services.